Temp
4 4 3 2 1 0 1 1 -0 0 -1 -1 -2 -1 -1 -1 -1 -1 -2 -3 -4 -4 -3 -3 -3 -3 -2
2 2 2 1 1 1 -0 -0 -1 -1 -1 -1 -2 -2 -2 -2 -1 -2 -3 -4 -4 -4 -4 -4 -4 -3 -3
2 1 1 1 0 -1 -1 -1 -1 -2 -2 -2 -2 -2 -2 -2 -2 -5 -4 -4 -3 -2 -2 -2 -4 -4 -4
1 0 0 -1 -1 -1 -1 -2 -2 -3 -2 -2 -2 -2 -2 -2 -2 -2 -3 -2 -2 -2 -2 -4 -4 -5 -5
-1 -1 -2 -2 -2 -3 -3 -3 -4 -3 -3 -3 -3 -3 -3 -3 -3 -3 -3 -2 -2 -3 -5 -5 -5 -5 -5
-2 -3 -3 -3 -3 -4 -4 -4 -4 -4 -4 -3 -4 -3 -3 -3 -3 -3 -3 -3 -3 -3 -4 -5 -5 -5 -5
-4 -4 -4 -5 -5 -6 -6 -6 -5 -5 -5 -3 -3 -3 -3 -3 -3 -2 -3 -3 -4 -4 -4 -4 -4 -4 -5
-5 -5 -6 -6 -6 -6 -6 -6 -5 -5 -5 -4 -3 -3 -3 -3 -2 -3 -4 -4 -4 -4 -4 -4 -4 -4 -5
-6 -7 -7 -7 -7 -7 -6 -7 -6 -5 -5 -5 -4 -3 -2 -3 -3 -3 -4 -4 -4 -5 -4 -4 -4 -4 -4
-7 -7 -7 -7 -7 -7 -7 -7 -6 -5 -5 -5 -5 -4 -3 -3 -3 -3 -4 -4 -4 -4 -4 -4 -5 -5 -4
-6 -6 -6 -6 -6 -6 -6 -6 -6 -6 -6 -6 -6 -6 -7 -4 -2 -3 -3 -4 -4 -4 -5 -6 -6 -6 -6
-6 -6 -6 -6 -6 -6 -6 -5 -6 -6 -7 -7 -7 -8 -9 -8 -5 -4 -4 -4 -4 -4 -5 -6 -6 -7 -7
-6 -7 -7 -6 -6 -6 -6 -6 -6 -6 -7 -7 -8 -7 -10 -9 -8 -6 -5 -3 -4 -5 -5 -6 -6 -6 -6
-6 -7 -6 -6 -6 -6 -6 -6 -6 -6 -7 -7 -8 -9 -8 -8 -8 -6 -6 -7 -4 -5 -6 -6 -6 -6 -6
-6 -6 -6 -6 -6 -6 -6 -6 -6 -6 -5 -6 -8 -8 -8 -8 -7 -6 -6 -6 -5 -6 -6 -6 -6 -6 -6
-6 -7 -7 -7 -7 -7 -7 -7 -7 -6 -6 -6 -6 -7 -7 -6 -6 -5 -6 -6 -6 -7 -7 -7 -7 -5 -6
-7 -7 -7 -7 -7 -7 -8 -8 -8 -8 -7 -8 -8 -9 -9 -8 -6 -7 -7 -7 -7 -7 -7 -7 -8 -6 -6
Height
1480 1482 1483 1483 1486 1487 1488 1488 1489 1491 1493 1492 1495 1495 1496 1498 1496 1496 1497 1496 1497 1497 1497 1497 1498 1498 1499
1477 1478 1479 1479 1482 1481 1484 1483 1485 1486 1488 1489 1488 1491 1491 1491 1490 1490 1490 1490 1490 1491 1491 1491 1491 1492 1493
1474 1476 1476 1476 1478 1479 1480 1481 1482 1483 1484 1484 1485 1485 1486 1485 1485 1486 1485 1484 1485 1485 1485 1485 1485 1486 1486
1473 1474 1476 1476 1476 1476 1478 1479 1480 1480 1480 1481 1481 1480 1481 1481 1481 1482 1480 1480 1480 1480 1480 1479 1479 1479 1480
1473 1474 1474 1474 1475 1476 1477 1478 1478 1478 1477 1478 1476 1476 1476 1476 1477 1476 1476 1476 1475 1475 1475 1475 1474 1474 1474
1473 1474 1474 1474 1475 1475 1476 1476 1476 1475 1474 1474 1473 1473 1473 1473 1473 1472 1472 1472 1471 1469 1468 1467 1467 1467 1467
1472 1472 1472 1473 1474 1474 1474 1473 1473 1473 1471 1470 1470 1471 1470 1470 1469 1468 1468 1467 1466 1464 1463 1462 1461 1460 1459
1470 1470 1470 1470 1470 1470 1470 1470 1470 1470 1468 1467 1467 1467 1467 1465 1464 1463 1463 1463 1461 1459 1457 1456 1454 1453 1452
1468 1468 1467 1467 1467 1467 1467 1467 1467 1468 1466 1465 1465 1463 1462 1461 1460 1460 1460 1458 1455 1453 1451 1449 1447 1445 1444
1466 1465 1465 1465 1465 1465 1465 1465 1465 1465 1464 1464 1462 1461 1458 1456 1456 1456 1455 1452 1450 1447 1445 1442 1440 1438 1437
1464 1464 1464 1464 1463 1463 1462 1462 1461 1461 1462 1461 1458 1458 1456 1453 1450 1450 1448 1446 1444 1442 1439 1437 1436 1433 1430
1463 1462 1462 1461 1461 1460 1459 1458 1457 1456 1457 1456 1455 1454 1452 1449 1445 1443 1442 1440 1437 1436 1435 1432 1430 1428 1425
1461 1461 1460 1459 1457 1456 1455 1454 1453 1452 1451 1451 1450 1449 1448 1445 1441 1438 1435 1432 1432 1431 1428 1426 1423 1421 1418
1459 1458 1457 1455 1454 1453 1451 1450 1448 1447 1446 1446 1445 1444 1442 1440 1438 1433 1432 1429 1427 1424 1421 1418 1416 1414 1411
1456 1455 1454 1452 1451 1449 1448 1446 1444 1442 1441 1441 1440 1438 1436 1434 1430 1428 1425 1422 1421 1418 1415 1410 1409 1406 1403
1453 1451 1450 1449 1447 1446 1444 1443 1440 1438 1436 1435 1433 1432 1430 1427 1426 1422 1419 1416 1414 1412 1409 1404 1399 1400 1397
1449 1447 1446 1444 1443 1441 1440 1438 1436 1434 1432 1431 1429 1426 1423 1418 1417 1418 1413 1410 1407 1404 1402 1398 1392 1389 1388
Wind_Speed
21 20 23 24 27 33 27 27 23 23 22 18 18 20 21 22 22 23 20 17 15 14 14 14 15 15 15
13 13 14 15 18 19 21 20 19 17 16 17 16 19 20 21 20 18 16 15 14 14 14 15 15 16 17
7 9 12 14 14 15 14 15 16 15 15 16 18 19 20 17 17 14 14 15 15 15 16 16 16 17 17
7 9 11 11 11 12 13 12 13 12 13 15 18 18 17 15 14 15 15 15 15 16 16 16 17 17 17
7 6 8 9 8 9 10 11 11 13 15 17 15 12 12 14 14 13 14 14 14 16 16 16 17 19 19
4 6 7 8 9 10 11 12 13 10 12 9 12 10 12 12 13 13 14 15 16 16 16 17 18 18 19
6 8 9 10 10 11 12 13 13 8 11 8 9 9 11 11 13 15 15 13 12 16 19 19 20 21 21
9 9 10 11 11 12 11 10 9 9 11 9 7 8 9 12 12 9 7 12 15 18 20 21 23 24 24
9 7 8 6 8 8 7 8 9 6 10 12 9 12 12 10 10 11 12 13 15 15 20 23 24 25 26
7 7 6 5 7 8 8 9 10 7 6 10 14 14 8 7 11 15 15 11 14 16 19 20 20 21 21
4 4 5 7 8 9 10 12 13 13 9 13 16 16 15 20 19 17 13 14 14 15 15 11 15 18 23
5 6 8 10 11 11 12 14 15 16 15 16 19 17 19 22 26 22 21 17 17 12 11 16 16 19 20
8 9 10 11 11 12 13 13 15 16 15 16 17 17 19 22 26 27 25 21 12 15 15 17 18 18 20
11 12 13 14 13 14 15 15 17 15 14 14 16 17 20 21 23 26 24 23 20 19 21 22 21 20 19
13 13 13 14 14 14 14 16 17 18 16 13 15 19 21 21 24 23 23 23 20 21 24 28 23 22 21
13 14 14 14 15 14 14 16 18 18 18 17 16 17 21 23 22 20 23 24 22 25 25 29 31 23 21
14 14 14 15 15 16 15 16 18 19 18 16 15 18 22 27 27 23 21 27 29 27 25 27 30 28 24
Wind_Direction
273 270 259 251 247 250 255 256 254 253 250 252 256 263 266 269 271 274 273 273 272 270 270 268 269 268 270
268 266 256 243 240 244 243 245 249 254 257 257 263 264 265 266 270 269 270 271 273 271 269 269 271 272 273
264 258 254 245 238 238 247 249 255 259 260 259 261 262 265 270 266 265 261 265 275 281 284 279 273 269 270
248 255 243 241 243 243 251 260 259 262 262 265 264 266 267 256 260 265 273 277 280 280 278 277 278 278 277
230 239 253 259 259 256 256 260 263 269 268 267 264 253 251 260 264 271 273 272 271 271 272 272 272 273 276
273 244 239 246 254 257 261 274 289 281 266 244 263 257 253 262 264 264 266 268 271 272 274 274 276 273 277
269 263 263 259 258 259 267 278 284 268 275 269 247 246 253 258 263 267 269 264 260 269 270 275 276 276 274
286 280 271 268 267 272 277 278 273 278 275 277 252 254 264 275 270 247 229 265 273 278 282 282 279 278 279
296 290 284 267 272 270 276 280 284 283 274 280 276 294 293 271 237 217 295 289 288 286 287 284 280 279 280
287 287 276 262 260 272 272 275 282 296 254 265 294 308 308 280 208 287 295 289 293 293 291 289 284 284 283
293 274 272 266 264 267 271 274 278 271 254 272 289 301 301 301 297 306 311 309 304 302 292 292 288 288 290
298 290 282 279 277 277 276 280 279 277 275 271 279 289 292 296 299 310 315 313 311 305 300 298 288 287 288
288 285 286 285 284 281 277 278 276 273 273 271 272 278 283 285 296 306 315 315 314 317 307 306 302 294 291
291 287 285 284 282 285 287 288 287 288 278 271 261 268 279 280 291 301 310 301 310 315 313 312 312 305 298
287 289 291 291 290 290 293 294 297 300 297 285 259 265 274 281 288 301 305 302 308 311 309 307 310 312 309
291 292 295 296 296 296 297 297 301 305 305 305 294 281 280 278 283 295 301 307 312 311 307 305 302 306 314
289 293 295 297 298 298 302 300 300 303 305 309 314 309 299 293 295 296 298 304 309 304 304 304 304 305 308